Regional Weather Roundup
Issued by NWS Midland/Odessa, TX

Skip options and go directly to product.
Home | Oldest Version | Next Version | Current Version | All | Text Only | Save Text | Print | Product List | Glossary On

Skip product version selection by date and time.   
367
ASUS44 KMAF 012001
RWRMAF
MIDLAND AREA WEATHER ROUNDUP
NATIONAL WEATHER SERVICE MIDLAND TX
200 PM CST SUN MAR 01 2015

...IN SOUTHWEST TEXAS AND SOUTHEAST NEW MEXICO...

CITY           SKY/WX    TMP DP  RH WIND       PRES   REMARKS
ALPINE         MOSUNNY   61  38  42 NE8       30.20F
ANDREWS        CLOUDY    35  35 100 SE5       30.22F WCI  30
ARTESIA        CLOUDY    37  37 100 CALM      30.18F
BIG SPRING     CLOUDY    35  33  91 NE9       30.27F WCI  28
CARLSBAD       CLOUDY    42  33  70 VRB6      30.17F WCI  38
DRYDEN           N/A     48  43  82 CALM      30.18F
FORT STOCKTON  CLOUDY    42  38  85 NE6       30.19F WCI  38
GUAD PASS      NOT AVBL
HOBBS          CLOUDY    36  36 100 E7        30.20F WCI  30
MARFA          MOSUNNY   72  30  21 SE12      30.16F
MIDLAND AIRPK  CLOUDY    36  36 100 NE8       30.25F FOG     WCI  30
MIDLAND INTL   CLOUDY    37  35  92 NE8       30.22F FOG     WCI  31
ODESSA         CLOUDY    37  34  89 E7        30.22F FOG     WCI  32
PECOS          CLOUDY    41  36  83 E6        30.21F WCI  37
PRESIDIO       FAIR      62  37  39 E3        30.10F
SEMINOLE       CLOUDY    37  34  89 CALM      30.23F
SNYDER         CLOUDY    30  29  98 NE5       30.29F FOG     WCI  25
WINK           CLOUDY    41  35  79 E6        30.20F WCI  37
$$
...OTHER STATIONS IN TEXAS...

CITY           SKY/WX    TMP DP  RH WIND       PRES   REMARKS
ABILENE        FOG       31  30  96 N9        30.31F VSB 1   WCI  23
AMARILLO       CLOUDY    31  28  89 N6        30.25F WCI  25
AUSTIN         CLOUDY    42  41  96 N13       30.25F FOG     WCI  35
BROWNSVILLE    CLOUDY    59  55  87 NW6       30.16F
CORPUS CHRISTI LGT RAIN  52  51  97 NW9       30.17F VSB 1/2
DALLAS FTW     CLOUDY    36  34  92 N14       30.32F WCI  27
DEL RIO        CLOUDY    51  46  83 NW8       30.19F
EL PASO        CLOUDY    70  26  19 S10G17    30.07F
HOUSTON INT    FOG       58  57  97 N5        30.19F VSB 1/4
LUBBOCK        CLOUDY    31  28  89 CALM      30.24F
SAN ANGELO     CLOUDY    36  35  96 NE8       30.26F WCI  30
SAN ANTONIO    CLOUDY    47  44  90 NE9       30.21S FOG
WACO           CLOUDY    39  37  92 N14       30.29F FOG     WCI  31
WICHITA FALLS  NOT AVBL
$$
...OTHER LOCATIONS IN NEW MEXICO...

CITY           SKY/WX    TMP DP  RH WIND       PRES   REMARKS
ALAMAGORDO     SUNNY     68  30  24 S10       30.08F
ALBUQUERQUE    MOSUNNY   51  38  60 W3        30.09F
CANNON AFB     CLOUDY    32  29  89 NE5       30.19F WCI  27
CLOVIS         CLOUDY    30  28  93 E6        30.20F WCI  24
HOLLOMAN AFB   SUNNY     70  32  24 SE8G16    30.05F
ROSWELL        CLOUDY    34  31  88 SE7       30.18F WCI  28
RUIDOSO        SUNNY     59  25  27 S21G29    30.15F
SANTA FE       MOSUNNY   48  34  58 CALM      30.11F
TRUTH OR CONSE SUNNY     68  26  20 SW18G25   30.04F
TUCUMCARI      CLOUDY    33  28  81 E7        30.19F WCI  27
$$

USA.gov is the U.S. government's official web portal to all federal, state and local government web resources and services.